This is the latest recevied weather packets stored in our database for station/object KQ4PPF. If no packets are shown the sender has not sent any weather packets the latest 10 day(s).
| Time | Temp. | Humidity | Pressure | Rain* | Wind** | Luminosity | Snow |
|---|---|---|---|---|---|---|---|
| 1788477231 | 31.11° C | 70% | 1014.3 hPa | 0 mm | - | 8 W/m² | - |
| 1788476927 | 31.67° C | 70% | 1014.4 hPa | 0 mm | - | 9 W/m² | - |
| 1788476621 | 31.67° C | 69% | 1014.3 hPa | 0 mm | - | 11 W/m² | - |
| 1788476318 | 31.67° C | 68% | 1014.2 hPa | 0 mm | - | 11 W/m² | - |
| 1788476008 | 32.22° C | 67% | 1014.3 hPa | 0 mm | - | 12 W/m² | - |
| 1788475705 | 32.22° C | 65% | 1014.2 hPa | 0 mm | - | 15 W/m² | - |
| 1788475400 | 32.78° C | 66% | 1014.2 hPa | 0 mm | - | 16 W/m² | - |
| 1788475095 | 32.78° C | 64% | 1014.2 hPa | 0 mm | - | 19 W/m² | - |
| 1788474794 | 32.78° C | 64% | 1014.4 hPa | 0 mm | - | 19 W/m² | - |
| 1788474484 | 32.78° C | 64% | 1014.4 hPa | 0 mm | - | 18 W/m² | - |
| 1788474182 | 32.78° C | 61% | 1014.2 hPa | 0 mm | - | 16 W/m² | - |
| 1788473877 | 33.33° C | 59% | 1014.2 hPa | 0 mm | - | 13 W/m² | - |
| 1788473575 | 33.33° C | 56% | 1014.2 hPa | 0 mm | - | 19 W/m² | - |
| 1788473274 | 33.33° C | 60% | 1014.1 hPa | 0 mm | - | 18 W/m² | - |
| 1788472969 | 33.33° C | 58% | 1014.3 hPa | 0 mm | - | 22 W/m² | - |
| 1788472661 | 33.33° C | 58% | 1014.2 hPa | 0 mm | - | 19 W/m² | - |
| 1788472358 | 33.33° C | 58% | 1014.4 hPa | 0 mm | - | 18 W/m² | - |
| 1788472055 | 33.33° C | 58% | 1014.4 hPa | 0 mm | - | 14 W/m² | - |
| 1788471752 | 32.78° C | 60% | 1014.3 hPa | 0 mm | - | 15 W/m² | - |
| 1788471446 | 33.33° C | 60% | 1014.3 hPa | 0 mm | - | 21 W/m² | - |
| 1788471142 | 33.89° C | 59% | 1014.3 hPa | 0 mm | - | 15 W/m² | - |
| 1788470832 | 33.89° C | 56% | 1014.2 hPa | 0 mm | - | 14 W/m² | - |
| 1788470528 | 33.89° C | 56% | 1014.2 hPa | 0 mm | - | 25 W/m² | - |
| 1788470221 | 33.89° C | 54% | 1014.2 hPa | 0 mm | - | 26 W/m² | - |
| 1788469918 | 34.44° C | 56% | 1014.4 hPa | 0 mm | - | 38 W/m² | - |
* Rain latest hour (hover to see other rain measurements)
** Current wind speed in m/s (hover to see current wind gust speed)